Belleville, IL

2:28 PM CST on November 22, 2019 (GMT -0600)
Scott Air Force Base-Midamerica

Weather History for KBLV - October, 2019

Change the Weather History Date:

Monday, October 21, 2019

  Actual Average Record
Temperature  
Mean Temperature 61 °F -  
Max Temperature 70 °F 68 °F 86 °F (1953)
Min Temperature 51 °F 40 °F 25 °F (1952)
Degree Days  
Heating Degree Days 4    
Growing Degree Days 11 (Base 50)    
Moisture  
Dew Point 55 °F    
Average Humidity 79    
Maximum Humidity 95    
Minimum Humidity 34    
Precipitation  
Precipitation 0.25 in - - ()
Sea Level Pressure  
Sea Level Pressure 29.58 in    
Wind  
Wind Speed 10 mph ()    
Max Wind Speed 17 mph    
Max Gust Speed 29 mph    
Visibility 10.0 miles    
Events Rain , Thunderstorm    
Averages and records for this station are not official NWS values.
T = Trace of Precipitation, MM = Missing Value Source: Averaged Metar Reports

Daily Weather History Graph

Daily Weather History Graph

Search for Another Location

Airport or City:

Astronomy

Oct. 21, 2019 Rise Set
Actual Time 7:14 AM CDT 6:13 PM CDT
Civil Twilight 6:47 AM CDT 6:40 PM CDT
Nautical Twilight 6:16 AM CDT 7:10 PM CDT
Astronomical Twilight 5:45 AM CDT 7:41 PM CDT
Moon No Moon Rise 2:29 PM CDT (10/21)
Length of Visible Light 11h 52m
Length of Day
10h 58m
Waning Gibbous, 48% of the Moon is Illuminated
Oct 21
Waning Gibbous
Oct 27
New
Nov 4
First Quarter
Nov 12
Full
Nov 19
Last Quarter

Hourly Weather History & Observations

Time (CDT) Temp. Dew Point Humidity Pressure Visibility Wind Dir Wind Speed Gust Speed Precip Events Conditions
12:56 AM 59.0 °F 53.4 °F 82% 29.70 in 10.0 mi SE 4.6 mph - N/A   Clear
1:56 AM 60.6 °F 54.7 °F 81% 29.67 in 10.0 mi SE 8.1 mph - N/A   Clear
2:46 AM 62.6 °F 55.4 °F 77% 29.62 in 10.0 mi SE 10.4 mph - N/A   Mostly Cloudy
2:56 AM 62.1 °F 55.8 °F 80% 29.61 in 10.0 mi ESE 11.5 mph - N/A   Mostly Cloudy
3:31 AM 62.6 °F 57.2 °F 82% 29.60 in 10.0 mi SE 15.0 mph 20.7 mph N/A   Overcast
3:46 AM 62.6 °F 57.2 °F 82% 29.57 in 10.0 mi SE 13.8 mph - N/A   Scattered Clouds
3:56 AM 62.8 °F 57.2 °F 82% 29.57 in 10.0 mi SE 15.0 mph - N/A   Scattered Clouds
3:59 AM 62.6 °F 57.2 °F 82% 29.56 in 10.0 mi SE 13.8 mph - N/A Thunderstorm Thunderstorm
4:00 AM 62.6 °F 57.2 °F 82% 29.56 in 10.0 mi SE 13.8 mph - N/A Rain , Thunderstorm Light Thunderstorms and Rain
4:09 AM 62.6 °F 57.2 °F 82% 29.55 in 10.0 mi SE 15.0 mph - N/A Rain , Thunderstorm Light Thunderstorms and Rain
4:13 AM 62.6 °F 59.0 °F 88% 29.55 in 10.0 mi ESE 16.1 mph - N/A Rain , Thunderstorm Light Thunderstorms and Rain
4:14 AM 62.6 °F 59.0 °F 88% 29.56 in 10.0 mi SE 16.1 mph - N/A Rain , Thunderstorm Light Thunderstorms and Rain
4:29 AM 62.6 °F 59.0 °F 88% 29.52 in 10.0 mi ESE 17.3 mph - N/A Rain , Thunderstorm Light Rain
4:33 AM 62.6 °F 59.0 °F 88% 29.52 in 10.0 mi ESE 15.0 mph 21.9 mph N/A Rain , Thunderstorm Light Thunderstorms and Rain
4:38 AM 62.6 °F 59.0 °F 88% 29.55 in 10.0 mi SSE 11.5 mph 21.9 mph N/A Rain , Thunderstorm Thunderstorms and Rain
4:44 AM 62.6 °F 59.0 °F 88% 29.54 in 10.0 mi SSE 12.7 mph 21.9 mph N/A Rain , Thunderstorm Heavy Thunderstorms and Rain
4:52 AM 62.6 °F 60.8 °F 94% 29.55 in 10.0 mi SE 16.1 mph 26.5 mph N/A Rain , Thunderstorm Thunderstorms and Rain
4:56 AM 61.9 °F 60.1 °F 94% 29.55 in 10.0 mi SSE 15.0 mph 26.5 mph 0.23 in Rain , Thunderstorm Thunderstorms and Rain
5:00 AM 62.6 °F 60.8 °F 94% 29.55 in 10.0 mi SSE 12.7 mph 23.0 mph N/A Rain , Thunderstorm Light Rain
5:02 AM 62.6 °F 60.8 °F 94% 29.55 in 10.0 mi SSE 11.5 mph 19.6 mph N/A Thunderstorm Overcast
5:11 AM 62.6 °F 60.8 °F 94% 29.56 in 10.0 mi SSE 12.7 mph 20.7 mph N/A Rain Light Rain
5:46 AM 64.4 °F 60.8 °F 88% 29.49 in 10.0 mi SSE 10.4 mph - N/A   Scattered Clouds
5:48 AM 64.4 °F 60.8 °F 88% 29.49 in 10.0 mi SSE 9.2 mph - N/A Rain Light Rain
5:56 AM 63.3 °F 61.2 °F 93% 29.51 in 10.0 mi SSE 10.4 mph - 0.01 in Rain Light Rain
6:00 AM 62.6 °F 60.8 °F 94% 29.49 in 10.0 mi SE 9.2 mph - N/A   Partly Cloudy
6:44 AM 62.6 °F 60.8 °F 94% 29.53 in 10.0 mi SSE 10.4 mph - N/A Rain Light Rain
6:56 AM 63.0 °F 61.5 °F 95% 29.53 in 10.0 mi South 12.7 mph 20.7 mph 0.01 in Rain Light Rain
7:26 AM 62.6 °F 60.8 °F 94% 29.52 in 10.0 mi SSE 12.7 mph 20.7 mph N/A   Mostly Cloudy
8:56 AM 62.4 °F 59.2 °F 89% 29.52 in 10.0 mi South 10.4 mph - N/A   Partly Cloudy
9:56 AM 63.1 °F 59.2 °F 87% 29.55 in 10.0 mi SSW 4.6 mph - N/A   Scattered Clouds
10:01 AM 62.6 °F 59.0 °F 88% 29.55 in 10.0 mi SSW 9.2 mph - N/A   Mostly Cloudy
10:06 AM 62.6 °F 59.0 °F 88% 29.55 in 10.0 mi South 8.1 mph 18.4 mph N/A   Mostly Cloudy
10:11 AM 62.6 °F 59.0 °F 88% 29.56 in 10.0 mi South 8.1 mph 18.4 mph N/A   Overcast
10:16 AM 62.6 °F 59.0 °F 88% 29.56 in 10.0 mi South 10.4 mph 18.4 mph N/A   Overcast
10:21 AM 62.6 °F 59.0 °F 88% 29.56 in 10.0 mi South 9.2 mph 18.4 mph N/A   Overcast
10:56 AM 63.0 °F 58.3 °F 85% 29.56 in 10.0 mi South 5.8 mph - N/A   Overcast
11:01 AM 62.6 °F 59.0 °F 88% 29.56 in 10.0 mi SW 4.6 mph - N/A   Overcast
11:21 AM 64.4 °F 59.0 °F 83% 29.56 in 10.0 mi SSW 8.1 mph - N/A   Mostly Cloudy
11:56 AM 67.5 °F 59.2 °F 75% 29.57 in 10.0 mi SSW 9.2 mph - N/A   Scattered Clouds
12:56 PM 67.6 °F 55.0 °F 64% 29.57 in 10.0 mi WSW 13.8 mph 20.7 mph N/A   Mostly Cloudy
1:56 PM 70.9 °F 52.3 °F 52% 29.57 in 10.0 mi WSW 13.8 mph 28.8 mph N/A   Partly Cloudy
2:56 PM 69.8 °F 40.8 °F 35% 29.57 in 10.0 mi SW 11.5 mph 24.2 mph N/A   Clear
3:56 PM 70.2 °F 40.5 °F 34% 29.57 in 10.0 mi SW 13.8 mph 19.6 mph N/A   Clear
4:56 PM 67.6 °F 39.7 °F 36% 29.61 in 10.0 mi WSW 11.5 mph 21.9 mph N/A   Clear
5:56 PM 63.9 °F 41.0 °F 43% 29.65 in 10.0 mi West 9.2 mph 18.4 mph N/A   Clear
6:56 PM 59.7 °F 40.5 °F 49% 29.69 in 10.0 mi West 5.8 mph - N/A   Clear
7:56 PM 59.0 °F 40.8 °F 51% 29.72 in 10.0 mi WSW 6.9 mph - N/A   Clear
8:56 PM 54.9 °F 41.2 °F 60% 29.72 in 10.0 mi SW 5.8 mph - N/A   Clear
9:56 PM 55.2 °F 40.6 °F 58% 29.74 in 10.0 mi SSW 9.2 mph - N/A   Clear
10:56 PM 52.7 °F 40.5 °F 63% 29.76 in 10.0 mi SSW 8.1 mph - N/A   Clear
11:56 PM 51.8 °F 40.5 °F 65% 29.77 in 10.0 mi SSW 8.1 mph - N/A   Clear